Location: Cahas Mountain Overlook
(37.0833°N, 80.1000°W)
Time: 08:27:53
(UTC-05:00)

S-56A Canister/Altair - Pass Details

Date: 30 November 2023
Orbit: 640 x 2488 km, 38.9° (Epoch: 25 February)

Event Time Altitude Azimuth Distance (km) Brightness Sun altitude
Rises 19:13:03 0° 282° (WNW) 3,585 12.1 -25.3°
Reaches altitude 10° 19:15:28 10° 274° (W) 2,832 11.4 -25.8°
Maximum altitude 19:21:47 37° 209° (SSW) 1,937 9.7 -27.0°
Drops below altitude 10° 19:30:54 10° 147° (SSE) 4,089 11.0 -28.8°
Enters shadow 19:31:32 - 145° (SE) 4,284 11.1 -28.9°
Sets 19:35:09 0° 140° (SE) 5,380 - -29.7°
